DRAUGEN current weather conditions

sailwx.info

Wind from 090 at 7 knots

Air temperature 10.0° C
Dewpoint 8.0° C

Last reported at 2015-May-28 08:20 UTC.
Time now 2015-May-28 10:12 UTC

Location: N 64°22' E 007°47'.
View on Google Maps.

See reports from other nearby stations

  
Tides and Currents Weather Stations Pressure Air Temp Water Temp Dewpoint Dewpoint Depression Visibility Wind Speed Wind Dir Waves Ship Positions
date/time (UTC)wind fromknots sea level pressurealtimeterstation pressurevisibilityair tempwater tempwave heightnotes
2015-May-28 09:20 100 14 9.0
2015-May-28 08:50 080 10 10.0
2015-May-28 08:20 090 7 10.0
2015-May-28 07:50 100 9 8.0
2015-May-28 07:20 120 10 8.0
2015-May-28 06:50 130 10 8.0
2015-May-28 06:20 170 2 9.0
2015-May-28 05:50 160 8 8.0
2015-May-28 05:20 170 9 8.0
2015-May-28 04:50 160 11 8.0
2015-May-28 04:20 190 12 8.0
2015-May-28 03:50 190 14 8.0
2015-May-28 03:20 180 17 8.0
2015-May-28 02:50 180 18 8.0
2015-May-28 02:20 180 17 8.0
2015-May-28 01:50 180 18 8.0
2015-May-28 01:20 180 17 8.0
2015-May-28 00:50 180 17 8.0
2015-May-28 00:20 190 16 8.0
2015-May-27 23:50 180 15 8.0
2015-May-27 23:20 190 15 8.0
2015-May-27 22:50 200 13 8.0
2015-May-27 22:20 200 12 8.0
2015-May-27 21:50 210 12 8.0
2015-May-27 21:20 200 12 8.0
2015-May-27 20:50 200 12 8.0
2015-May-27 20:20 210 13 8.0
2015-May-27 19:50 210 13 8.0
2015-May-27 19:20 210 12 8.0
2015-May-27 18:50 220 13 8.0
2015-May-27 18:20 220 15 8.0
2015-May-27 17:50 220 15 8.0
2015-May-27 17:20 220 14 8.0
2015-May-27 16:50 220 13 8.0
2015-May-27 16:20 220 13 8.0
2015-May-27 15:50 220 12 8.0
2015-May-27 15:20 220 14 8.0
2015-May-27 14:50 220 13 8.0
2015-May-27 14:20 230 13 8.0
2015-May-27 13:50 240 12 8.0
2015-May-27 13:20 230 13 8.0
2015-May-27 12:50 240 12 8.0
2015-May-27 12:20 240 13 8.0
2015-May-27 11:50 240 13 8.0
2015-May-27 11:20 240 13 8.0
2015-May-27 10:50 240 13 8.0
2015-May-27 10:20 240 15 7.0
2015-May-27 09:50 240 14 7.0
2015-May-27 09:20 240 16 7.0
2015-May-27 08:50 240 13 7.0
2015-May-27 08:20 240 14 7.0
2015-May-27 07:50 250 13 7.0
2015-May-27 07:20 240 13 7.0
2015-May-27 06:50 240 13 7.0
2015-May-27 06:10 260 12 5.4 8.0
2015-May-27 05:50 260 14 7.0
2015-May-27 05:20 260 12 7.0
2015-May-27 04:50 270 14 7.0
2015-May-27 04:20 290 14 7.0
2015-May-27 03:50 290 18 8.0
2015-May-27 03:20 290 20 7.0
2015-May-27 02:50 270 18 7.0
2015-May-27 02:20 240 8 7.0
2015-May-27 01:50 220 6 7.0
2015-May-27 01:20 210 7 7.0
2015-May-27 00:50 200 8 7.0
2015-May-27 00:20 210 9 7.0
2015-May-26 23:50 200 11 7.0
2015-May-26 23:20 200 11 7.0
2015-May-26 22:50 200 12 7.0
2015-May-26 22:20 170 11 7.0
2015-May-26 21:50 190 10 7.0
2015-May-26 21:20 200 11 7.0
2015-May-26 20:50 210 13 7.0
2015-May-26 20:20 220 13 8.0
2015-May-26 19:50 220 11 8.0
2015-May-26 19:20 220 10 8.0
2015-May-26 18:50 210 12 7.0
2015-May-26 18:20 210 10 8.0
2015-May-26 17:50 220 10 8.0
2015-May-26 17:20 230 11 8.0
2015-May-26 16:50 230 11 8.0
2015-May-26 16:20 230 9 8.0
2015-May-26 15:50 230 7 8.0
2015-May-26 15:20 250 7 8.0
2015-May-26 14:50 260 8 9.0
2015-May-26 14:20 260 6 9.0
2015-May-26 13:50 270 6 9.0
2015-May-26 13:20 280 6 10.0
2015-May-26 12:50 270 7 9.0
2015-May-26 12:20 270 7 9.0
2015-May-26 11:50 220 6 8.0
2015-May-26 11:20 230 7 8.0
2015-May-26 10:50 230 7 8.0
2015-May-26 10:20 230 6 8.0